Regional Weather Roundup
Issued by NWS Cleveland, OH

Home | Current Version | Previous Version | Text Only | Print | Product List | Glossary Off
Versions: 1 2 3 4 5 6 7 8 9 10 11 12 13 14 15 16 17 18 19 20 21 22 23 24 25 26 27 28 29 30 31 32 33 34 35 36 37 38 39 40 41 42 43 44 45 46 47 48 49 50

000
ASUS41 KCLE 040702
RWRCLE
OHIO REGIONAL WEATHER ROUNDUP
NATIONAL WEATHER SERVICE CLEVELAND, OH
300 AM EDT TUE AUG 04 2015

NOTE: "FAIR" INDICATES FEW OR NO CLOUDS BELOW 12,000 FEET WITH NO
SIGNIFICANT WEATHER AND/OR OBSTRUCTIONS TO VISIBILITY.

OHZ001>008-015>018-024>027-034-035-043-044-040800-
   NORTHWEST OHIO

CITY           SKY/WX    TMP DP  RH WIND       PRES   REMARKS
DEFIANCE       CLEAR     60  55  83 CALM      29.91F
FINDLAY        CLEAR     60  54  80 CALM      29.91S
TOLEDO EXPRESS CLEAR     59  53  80 CALM      29.90R
TOLEDO EXEC    CLEAR     61  52  72 SW5       29.91R
LIMA           CLEAR     57  54  89 CALM      29.93S
$$

OHZ009>014-019>023-028>033-038-089-040800-
   NORTHEAST OHIO

CITY           SKY/WX    TMP DP  RH WIND       PRES   REMARKS
CLE-HOPKINS    PTCLDY    64  55  72 SW6       29.90S
CLE-LAKEFRONT  CLEAR     73  56  54 W18       29.86R
CUY CO. ARPT   NOT AVBL
LORAIN-ELYRIA  CLEAR     63  53  70 W7        29.90S
ASHTABULA      CLEAR     60  59  96 CALM      29.87S
AKRON-CANTON   CLEAR     64  56  75 W5        29.90S
WOOSTER        CLEAR     59  53  80 NW8       29.91S
MANSFIELD      CLEAR     63  51  65 W7        29.93S
YOUNGSTOWN     PTCLDY    61  59  93 S3        29.88S
$$

OHZ042-051>053-060>062-070>072-077>081-040800-
  SOUTHWEST OHIO

CITY           SKY/WX    TMP DP  RH WIND       PRES   REMARKS
CINC-COVINGTON MOCLDY    69  66  90 CALM      29.94R
CINC-LUNKEN    CLOUDY    67  67 100 NE5       29.95R FOG
HAMILTON       PTCLDY    67  66  97 CALM      29.95S
DAYTON         MOCLDY    66  61  84 CALM      29.95S
WRIGHT-PAT AFB PTCLDY    66  65  96 CALM      29.94R
DAYTON GENERAL MOCLDY    67  64  90 CALM      29.94S
WILMINGTON     MOCLDY    66  63  90 CALM      29.95S
$$

OHZ036-037-039>041-045>050-054>059-063>069-073>076-082>088-040800-
  CENTRAL AND SOUTHEAST OHIO

CITY           SKY/WX    TMP DP  RH WIND       PRES   REMARKS
COLUMBUS       CLEAR     64  61  90 CALM      29.93R
OSU AIRPORT    PTCLDY    64  59  83 CALM      29.93S
BOLTON FIELD   NOT AVBL
RICKENBACK AFB MOCLDY    64  62  93 CALM      29.93S
NEWARK         CLEAR     63  60  90 CALM      29.93R
MARION         CLEAR     60  53  77 SW5       29.93S
LANCASTER      PTCLDY    63  61  93 CALM      29.94R
ZANESVILLE     PTCLDY    66  60  81 NW5       29.92R
NEW PHILLY     PTCLDY    64  57  78 CALM      29.91S
$$



USA.gov is the U.S. government's official web portal to all federal, state and local government web resources and services.